Regional Weather Roundup
Issued by NWS

Home | Current Version | Previous Version | Graphics & Text | Print | Product List | Glossary On
Versions: 1 2 3 4 5 6 7 8 9 10 11 12 13 14 15 16 17 18 19 20 21 22 23 24 25 26 27 28 29 30 31 32 33 34 35 36 37 38 39 40 41 42 43 44 45 46 47 48 49 50
000
ASUS43 KIND 292159
RWRIN

WEATHER ROUNDUP FOR INDIANA
NATIONAL WEATHER SERVICE INDIANAPOLIS IN
600 PM EDT FRI JUL 29 2016

NOTE: "FAIR" INDICATES FEW OR NO CLOUDS BELOW 12,000 FEET WITH NO
SIGNIFICANT WEATHER AND/OR OBSTRUCTIONS TO VISIBILITY.

* - STATION DOES NOT REPORT WEATHER SUCH AS PRECIPITATION OR FOG.

+ - STATION NOT QUALITY CONTROLLED BY THE NATIONAL WEATHER SERVICE.
    USE DATA WITH CAUTION...ESPECIALLY DEWPOINT AND RELATIVE
    HUMIDITY OBSERVATIONS.

INZ001>003-010>013-019-020-292300-
NORTHWEST INDIANA

CITY           SKY/WX    TMP DP  RH WIND       PRES   REMARKS
GARY /AIRPORT/ PTSUNNY   73  72  94 N8        29.95R
KNOX *+        MOSUNNY   73  63  68 N6        29.91F
MONTICELLO +   PTSUNNY   80  69  67 N9        29.89S

$$

LMZ046-743>745-292300-
SOUTHERN LAKE MICHIGAN

STATION/POSITION TIME  TEMP    WIND        PRES    WAVE
                       AIR SEA DIR/SP/G            HT
                 (UTC) (F)     (DEG/KT/KT) (MB)    (FT)
BURNS HARBOR     2101   70     140/  9/ 14 1013.5S
MICHIGAN CITY    2100   67     130/  8/ 10   N/A
5NW MICH CITY    2100   69 76  160/  8/ 14   N/A     2

$$

INZ004-005-014>016-021>024-292300-
NORTH CENTRAL INDIANA

CITY           SKY/WX    TMP DP  RH WIND       PRES   REMARKS
ELKHART        LGT RAIN  75  66  73 NE5       29.94F
GOSHEN         LGT RAIN  75  67  76 NE8       29.92F
SOUTH BEND     LGT RAIN  72  69  90 NE6       29.93F
WARSAW +       MOSUNNY   73  70  88 NE6       29.91F

$$

INZ006>009-017-018-025>027-292300-
NORTHEAST INDIANA

CITY           SKY/WX    TMP DP  RH WIND       PRES   REMARKS
ANGOLA *+        N/A     75  68  78 NE3       29.93F
FORT WAYNE     CLOUDY    80  67  64 NE14      29.89S THUNDER

$$

INZ028-029-035-036-043>045-051>053-292300-
WEST CENTRAL INDIANA

CITY           SKY/WX    TMP DP  RH WIND       PRES   REMARKS
CRAWFORDSVL +  PTSUNNY   74  69  83 S5        29.91R
LAFAYETTE      SUNNY     83  70  64 NW8       29.88R
TERRE HAUTE    MOSUNNY   83  72  69 SW6       29.90R

$$

INZ030>032-037>040-046>048-054>057-064-065-292300-
CENTRAL INDIANA

CITY           SKY/WX    TMP DP  RH WIND       PRES   REMARKS
COLUMBUS       SUNNY     77  75  94 N5        29.89F
INDIANAPOLIS   PTSUNNY   82  69  64 S13       29.90R
-EAGLE CREEK   PTSUNNY   83  71  67 SW7       29.88R
KOKOMO *+      CLOUDY    75  66  73 SE6       29.90F
SHELBYVILLE    CLOUDY    81  70  69 SW7       29.90R
ZIONSVILLE +   LGT RAIN  77  70  77 SE3       29.90R

$$

INZ033-034-041-042-049-050-058-059-292300-
EAST CENTRAL INDIANA

CITY           SKY/WX    TMP DP  RH WIND       PRES   REMARKS
MUNCIE         CLOUDY    83  70  64 CALM      29.90R

$$

INZ060-061-067>069-081>083-085>088-292300-
SOUTHWEST INDIANA

CITY           SKY/WX    TMP DP  RH WIND       PRES   REMARKS
EVANSVILLE     CLOUDY    76  71  85 N5        29.92S
HUNTINGBURG *+ CLOUDY    81  73  78 W15G22    29.91R

$$

INZ062-063-066-070>080-084-089>092-292300-
SOUTH CENTRAL AND SOUTHEAST INDIANA

CITY           SKY/WX    TMP DP  RH WIND       PRES   REMARKS
BLOOMINGTON    CLOUDY    76  69  79 W6        29.91S
MADISON *+     PTSUNNY   88  68  51 SW6       29.90F
SEYMOUR +      PTSUNNY   84  73  70 W10       29.89R

$$





USA.gov is the U.S. government's official web portal to all federal, state and local government web resources and services.